Weather History for K3LF - December, 2012

Change the Weather History Date:

Monday, December 3, 2012

  Actual Average (KSPI) Record (KSPI)
Temperature  
Mean Temperature 64 °F 35 °F  
Max Temperature 69 °F 43 °F 74 °F (1970)
Min Temperature 58 °F 26 °F -2 °F (1929)
Degree Days  
Heating Degree Days 2 30  
Month to date heating degree days 90  
Since 1 July heating degree days 1158  
Cooling Degree Days 0 0  
Month to date cooling degree days 0  
Year to date cooling degree days 1122  
Growing Degree Days 14 (Base 50)    
Moisture  
Dew Point 58 °F    
Average Humidity 86    
Maximum Humidity 97    
Minimum Humidity 68    
Precipitation  
Precipitation 0.00 in 0.09 in 1.69 in (1982)
Month to date precipitation 0.29  
Year to date precipitation 35.20  
Snow  
Snow 0.00 in 0.10 in 4.70 in (1957)
Month to date snowfall 0.3  
Since 1 July snowfall 0.9  
Snow Depth -    
Sea Level Pressure  
Sea Level Pressure 29.96 in    
Wind  
Wind Speed 15 mph (South)    
Max Wind Speed 32 mph    
Max Gust Speed 40 mph    
Visibility 8 miles    
Events      
T = Trace of Precipitation, MM = Missing Value Source: NWS Daily Summary

Daily Weather History Graph

Daily Weather History Graph

Search for Another Location

Airport or City:

Trip Planner

Search our weather history database for the weather conditions in past years. The results will help you decide how hot, cold, wet, or windy it might be!

Date:

Astronomy

Dec. 03, 2012 Rise Set
Actual Time 7:01 AM CST 4:35 PM CST
Civil Twilight 6:31 AM CST 5:05 PM CST
Nautical Twilight 5:58 AM CST 5:38 PM CST
Astronomical Twilight 5:26 AM CST 6:11 PM CST
Moon 9:21 PM CST (12/3) 10:25 AM CST (12/3)
Length of Visible Light 10h 33m
Length of Day
9h 34m
Waning Gibbous, 78% of the Moon is Illuminated
Dec 3
Waning Gibbous
Dec 6
Last Quarter
Dec 13
New
Dec 19
First Quarter
Dec 28
Full

Hourly Weather History & Observations

Time (CST) Temp. Dew Point Humidity Pressure Visibility Wind Dir Wind Speed Gust Speed Precip Events Conditions
12:15 AM 58.5 °F 57.4 °F 96% 30.02 in 2.5 mi SE 9.2 mph - N/A   Clear
12:35 AM 58.8 °F 57.6 °F 96% 30.02 in 3.0 mi SSE 8.1 mph - N/A   Scattered Clouds
12:55 AM 59.0 °F 57.7 °F 96% 30.02 in 3.0 mi SSE 9.2 mph - N/A   Scattered Clouds
1:15 AM 58.6 °F 57.4 °F 96% 30.02 in 3.0 mi SSE 9.2 mph - N/A   Clear
1:35 AM 59.0 °F 57.7 °F 96% 30.02 in 3.0 mi SSE 9.2 mph - N/A   Scattered Clouds
1:55 AM 58.6 °F 57.6 °F 96% 30.03 in 3.0 mi SSE 9.2 mph - N/A   Scattered Clouds
2:15 AM 58.8 °F 57.6 °F 96% 30.03 in 3.0 mi South 10.4 mph - N/A   Clear
2:35 AM 58.8 °F 57.7 °F 96% 30.03 in 4.0 mi SSE 11.5 mph - N/A   Clear
2:55 AM 58.8 °F 57.6 °F 96% 30.02 in 3.0 mi South 10.4 mph - N/A   Clear
3:15 AM 58.5 °F 57.4 °F 96% 30.02 in 3.0 mi South 10.4 mph - N/A   Scattered Clouds
3:35 AM 58.5 °F 57.4 °F 96% 30.01 in 3.0 mi South 11.5 mph - N/A   Scattered Clouds
3:55 AM 58.6 °F 57.6 °F 96% 30.01 in 3.0 mi South 12.7 mph - N/A   Scattered Clouds
4:15 AM 59.0 °F 58.1 °F 97% 30.00 in 4.0 mi South 12.7 mph - N/A   Scattered Clouds
4:35 AM 59.0 °F 58.1 °F 97% 30.00 in 4.0 mi South 10.4 mph - N/A   Clear
4:55 AM 59.0 °F 57.7 °F 96% 30.00 in 4.0 mi South 10.4 mph - N/A   Clear
5:15 AM 59.0 °F 57.6 °F 95% 29.99 in 4.0 mi South 10.4 mph - N/A   Clear
5:35 AM 58.6 °F 57.4 °F 96% 30.00 in 4.0 mi South 10.4 mph - N/A   Clear
5:55 AM 59.0 °F 57.6 °F 95% 29.99 in 4.0 mi South 11.5 mph - N/A   Clear
6:15 AM 59.4 °F 58.1 °F 96% 29.99 in 5.0 mi South 12.7 mph - N/A   Clear
6:35 AM 59.9 °F 58.5 °F 95% 30.00 in 5.0 mi South 15.0 mph - N/A   Scattered Clouds
6:55 AM 60.3 °F 59.0 °F 96% 29.99 in 5.0 mi South 17.3 mph - N/A   Scattered Clouds
7:15 AM 60.1 °F 58.6 °F 95% 29.99 in 4.0 mi South 16.1 mph - N/A   Clear
7:35 AM 60.4 °F 59.0 °F 95% 29.99 in 4.0 mi South 15.0 mph - N/A   Scattered Clouds
7:55 AM 61.0 °F 59.4 °F 94% 29.99 in 5.0 mi South 16.1 mph - N/A   Scattered Clouds
8:15 AM 61.3 °F 59.5 °F 94% 29.99 in 5.0 mi South 16.1 mph - N/A   Scattered Clouds
8:35 AM 62.6 °F 60.1 °F 91% 29.98 in 7.0 mi South 19.6 mph - N/A   Clear
8:55 AM 62.8 °F 60.3 °F 91% 29.99 in 7.0 mi South 21.9 mph 26.5 mph N/A   Scattered Clouds
9:15 AM 63.0 °F 60.4 °F 91% 29.99 in 7.0 mi South 19.6 mph 25.3 mph N/A   Mostly Cloudy
9:35 AM 63.7 °F 60.6 °F 90% 29.99 in 7.0 mi South 23.0 mph 26.5 mph N/A   Mostly Cloudy
9:55 AM 63.7 °F 60.4 °F 89% 29.99 in 7.0 mi South 23.0 mph 29.9 mph N/A   Mostly Cloudy
10:15 AM 64.0 °F 60.6 °F 89% 29.99 in 10.0 mi South 24.2 mph 27.6 mph N/A   Mostly Cloudy
10:55 AM 65.1 °F 61.0 °F 86% 29.98 in 10.0 mi South 24.2 mph 28.8 mph N/A   Scattered Clouds
11:15 AM 66.4 °F 61.0 °F 83% 29.96 in 10.0 mi South 25.3 mph 28.8 mph N/A   Scattered Clouds
11:55 AM 67.5 °F 60.8 °F 79% 29.94 in 10.0 mi South 27.6 mph 31.1 mph N/A   Scattered Clouds
12:15 PM 68.5 °F 60.6 °F 76% 29.93 in 10.0 mi South 29.9 mph 40.3 mph N/A   Scattered Clouds
12:35 PM 68.5 °F 60.3 °F 75% 29.92 in 10.0 mi South 29.9 mph 38.0 mph N/A   Scattered Clouds
12:55 PM 68.4 °F 59.9 °F 74% 29.91 in 10.0 mi South 31.1 mph 35.7 mph N/A   Clear
1:15 PM 68.9 °F 59.5 °F 72% 29.90 in 10.0 mi South 25.3 mph 36.8 mph N/A   Clear
1:35 PM 69.1 °F 59.0 °F 70% 29.90 in 10.0 mi South 28.8 mph 39.1 mph N/A   Clear
1:55 PM 68.9 °F 58.3 °F 69% 29.88 in 10.0 mi South 31.1 mph 39.1 mph N/A   Clear
2:15 PM 68.9 °F 58.3 °F 69% 29.88 in 10.0 mi South 27.6 mph 35.7 mph N/A   Clear
2:35 PM 69.1 °F 58.3 °F 68% 29.89 in 10.0 mi South 25.3 mph 36.8 mph N/A   Clear
2:55 PM 68.9 °F 58.3 °F 69% 29.88 in 10.0 mi South 32.2 mph 35.7 mph N/A   Clear
3:15 PM 68.2 °F 58.3 °F 71% 29.88 in 10.0 mi South 29.9 mph 35.7 mph N/A   Clear
3:55 PM 66.7 °F 57.9 °F 73% 29.90 in 10.0 mi South 24.2 mph 31.1 mph N/A   Clear
4:15 PM 65.8 °F 57.7 °F 75% 29.90 in 10.0 mi South 21.9 mph 29.9 mph N/A   Clear
4:35 PM 65.3 °F 57.4 °F 76% 29.90 in 10.0 mi South 25.3 mph 29.9 mph N/A   Clear
4:55 PM 64.4 °F 57.2 °F 77% 29.91 in 10.0 mi South 20.7 mph 26.5 mph N/A   Clear
5:15 PM 63.5 °F 57.2 °F 80% 29.93 in 10.0 mi South 16.1 mph 23.0 mph N/A   Clear
5:55 PM 63.1 °F 57.2 °F 81% 29.94 in 10.0 mi South 16.1 mph - N/A   Scattered Clouds
6:15 PM 63.5 °F 56.8 °F 79% 29.94 in 10.0 mi South 17.3 mph 23.0 mph N/A   Scattered Clouds
6:35 PM 63.0 °F 56.5 °F 79% 29.94 in 10.0 mi South 16.1 mph 23.0 mph N/A   Scattered Clouds
6:55 PM 62.8 °F 56.3 °F 79% 29.95 in 10.0 mi South 17.3 mph - N/A   Scattered Clouds
7:15 PM 62.6 °F 56.7 °F 81% 29.94 in 10.0 mi South 18.4 mph - N/A   Clear
7:35 PM 62.6 °F 57.2 °F 82% 29.95 in 10.0 mi South 17.3 mph 24.2 mph N/A   Clear
7:55 PM 62.1 °F 57.2 °F 84% 29.95 in 10.0 mi South 18.4 mph 25.3 mph N/A   Clear
8:15 PM 61.7 °F 57.2 °F 85% 29.95 in 10.0 mi South 15.0 mph - N/A   Clear
8:35 PM 61.7 °F 57.0 °F 85% 29.95 in 10.0 mi South 12.7 mph - N/A   Clear
8:55 PM 61.7 °F 57.2 °F 85% 29.95 in 10.0 mi South 15.0 mph - N/A   Scattered Clouds
9:15 PM 61.7 °F 56.8 °F 84% 29.95 in 10.0 mi South 15.0 mph - N/A   Scattered Clouds
9:35 PM 61.0 °F 56.5 °F 85% 29.95 in 10.0 mi South 13.8 mph - N/A   Clear
9:55 PM 60.4 °F 56.5 °F 87% 29.95 in 10.0 mi South 13.8 mph - N/A   Clear
10:15 PM 60.3 °F 56.5 °F 87% 29.95 in 10.0 mi South 13.8 mph - N/A   Clear
10:35 PM 59.9 °F 56.3 °F 88% 29.95 in 10.0 mi South 13.8 mph - N/A   Clear
10:55 PM 59.9 °F 55.8 °F 86% 29.95 in 10.0 mi South 12.7 mph - N/A   Clear
11:15 PM 59.5 °F 55.4 °F 86% 29.95 in 10.0 mi South 11.5 mph - N/A   Clear
11:35 PM 60.3 °F 55.4 °F 84% 29.95 in 10.0 mi South 12.7 mph - N/A   Clear
11:55 PM 60.3 °F 55.4 °F 84% 29.94 in 10.0 mi South 12.7 mph - N/A   Clear